[[{"header":{"parameterUnit":"m.s-1","parameterCategory":1,"la1":30.2991,"la2":30.254,"lo1":-89.0895,"lo2":-89.0444,"dy":0.0017,"dx":0.0017,"nx":28,"ny":28,"refTime":"2024-09-29T09:00:00:Z","depth":0,"parameterNumber":2,"parameterNumberName":"U-component_of_WINDS"},"data":[0,0,0,0,0,0,0,0,0,0,0,0,0,0,0,0,0,0,0,0,0,0,0,0,0,0,0,0,0,0,0,0,0,0,0,0,0,0,0,0,0,0,0,0,0,0,0,0,0,0,0,0,0,0,0,0,0,0,2.0136,2.0137,0,2.0256,2.0257,2.0259,2.0261,2.026,2.0258,2.0257,2.0381,2.0386,2.039,0,0,0,0,0,0,0,0,0,0,0,0,0,1.991,1.9914,2.0136,2.0137,2.0139,2.0256,2.0257,2.0259,2.0261,2.026,2.0258,2.0256,2.038,2.0385,2.0391,0,0,0,0,0,0,0,0,0,0,0,0,0,2.0017,1.9915,2.0135,2.0154,2.0157,2.0255,2.0257,2.0259,2.0262,2.026,2.0257,2.0255,2.0378,2.0385,2.0392,2.048,0,0,2.0413,2.0416,0,0,0,0,0,0,0,0,2.0011,2.0025,2.015,2.0153,2.0156,2.0241,2.0223,2.0333,2.0262,2.0222,2.0257,2.0254,2.0336,2.0347,2.0374,2.0486,2.0491,2.0414,2.0418,2.0421,2.0423,0,0,0,0,0,0,0,2.0003,2.002,2.0183,2.0151,2.0155,2.0157,2.017,2.0244,2.029,2.0225,2.0226,2.024,2.0338,2.0368,2.0377,2.0493,2.0414,2.042,2.0424,2.0427,2.0684,2.0687,0,0,0,0,0,0,1.9992,2.0014,2.0179,2.0187,2.0076,2.0163,2.0177,2.0216,2.029,2.0299,2.0242,2.024,2.0357,2.0369,2.0382,2.049,2.0421,2.0428,2.0432,2.0682,2.0685,2.0688,0,0,0,0,0,0,1.9987,2.0007,2.0175,2.01,2.0122,2.0169,2.0213,2.022,2.0249,2.0302,2.031,2.0263,2.0355,2.0372,2.0456,2.0495,2.0431,2.0437,2.0679,2.0683,2.0686,2.0708,0,0,0,0,0,0,1.9981,2.0005,2.0038,2.0101,2.0126,2.0246,2.0215,2.0224,2.0261,2.026,2.0325,2.0333,2.0355,2.0445,2.0463,2.0503,2.0443,2.0675,2.0681,2.0685,2.0704,2.0712,2.0719,0,0,0,0,0,1.9972,2.004,2.004,2.006,2.0169,2.0248,2.0262,2.0286,2.0264,2.0299,2.0333,2.0331,2.0488,2.0454,2.0474,2.0517,2.0673,2.0679,2.0685,2.0701,2.0711,2.0719,0,0,0,0,0,0,1.9981,2.0048,2.0049,2.0139,2.0188,2.0248,2.0292,2.0295,2.0351,2.0347,2.0374,2.0389,2.0473,2.0503,2.0464,2.0607,2.0578,2.0588,2.0583,2.0593,2.0601,2.0591,2.0449,0,0,0,0,0,1.9993,2.0051,2.0108,2.0181,2.0206,2.0245,2.028,2.0294,2.0346,2.0367,2.0407,2.0458,2.0518,2.0558,2.0617,2.0709,2.0724,2.0749,2.0756,2.0762,2.077,2.0822,2.0834,2.0707,2.0707,2.0707,0,0,2.0019,2.0063,2.0098,2.0184,2.0223,2.0284,2.0262,2.0327,2.0372,2.0377,2.0458,2.049,2.0548,2.0637,2.0678,2.0665,2.0809,2.077,2.0774,2.0779,2.083,2.0842,2.0852,2.0711,2.071,2.071,0,0,2.0096,2.0136,2.0201,2.0242,2.0302,2.0327,2.0343,2.0404,2.0425,2.0507,2.0512,2.0567,2.0671,2.0713,2.0747,2.0842,2.0843,2.0861,2.09,2.095,2.096,2.097,2.1004,2.1015,2.0869,2.0869,2.0869,0,2.0121,2.0211,2.0235,2.03,2.0338,2.0345,2.0412,2.045,2.0526,2.0553,2.0537,2.0668,2.0708,2.0807,2.083,2.0858,2.0878,2.0853,2.0957,2.0966,2.0975,2.1008,2.1021,2.0871,2.0871,2.0871,2.087,0,2.0238,2.0301,2.0347,2.0421,2.0464,2.053,2.0564,2.0605,2.0616,2.0644,2.0728,2.0777,2.0845,2.087,2.0881,2.0971,2.0961,2.0951,2.0923,2.0989,2.102,2.1033,2.0873,2.0873,2.0872,2.0872,0,0,2.0323,2.0409,2.0426,2.0459,2.0527,2.0576,2.0643,2.071,2.0745,2.0798,2.0855,2.0944,2.0935,2.0975,2.0991,2.1035,2.1107,2.102,2.1021,2.1034,2.121,2.1217,2.1231,2.1109,2.1111,2.1113,2.1205,0,2.0407,2.0525,2.0549,2.0652,2.071,2.0719,2.0777,2.0825,2.0854,2.0908,2.094,2.1002,2.0986,2.101,2.1054,2.1089,2.1143,2.1083,2.1162,2.1165,2.1146,2.1247,2.1254,2.1339,2.1217,2.1219,2.1221,0,2.0521,2.0577,2.0685,2.0745,2.0771,2.0823,2.0887,2.0939,2.0994,2.1012,2.1057,2.1068,2.1139,2.1108,2.1205,2.1164,2.1198,2.1221,2.1224,2.1232,2.1196,2.1257,2.1366,2.1379,2.124,2.1239,2.1238,0,2.0572,2.0674,2.0752,2.0781,2.0853,2.0889,2.0921,2.0974,2.1014,2.107,2.1096,2.116,2.1195,2.1245,2.1274,2.1249,2.137,2.1341,2.1387,2.1386,2.1411,2.1409,2.1527,2.1434,2.1434,2.1434,2.1433,0,2.0663,2.0729,2.0776,2.0823,2.0898,2.0926,2.0999,2.1031,2.1078,2.1133,2.1145,2.1196,2.1231,2.1288,2.1311,2.1389,2.1405,2.1422,2.1427,2.142,2.1418,2.1442,2.1437,2.1437,2.1436,2.1436,2.1435,0,2.0732,2.0766,2.0851,2.0913,2.093,2.0982,2.1036,2.1083,2.1112,2.1181,2.1199,2.1245,2.1312,2.1346,2.1431,2.1446,2.1534,2.1536,2.1515,2.1517,2.1561,2.1556,2.1698,2.1718,2.1612,2.1613,2.1614,0,2.0787,2.0838,2.0906,2.0943,2.0976,2.1036,2.1076,2.1106,2.1148,2.1215,2.1255,2.1323,2.1379,2.1486,2.1528,2.1592,2.1596,2.1641,2.1605,2.1598,2.1596,2.1593,2.1598,2.1647,2.1648,2.1649,2.1649,0,2.0883,2.0897,2.0954,2.1018,2.1066,2.1117,2.1168,2.1199,2.1237,2.1283,2.1352,2.1396,2.1482,2.1549,2.1617,2.1651,2.1657,2.166,2.1675,2.1668,2.1654,2.1662,2.1532,2.1657,2.1656,2.1656,2.1655,2.1655,2.0946,2.0992,2.1047,2.1111,2.1152,2.12,2.1248,2.1283,2.1341,2.1413,2.1427,2.1501,2.1556,2.1648,2.1684,2.1743,2.1733,2.1753,2.1758,2.1763,2.1765,2.1645,2.1755,2.1755,2.1755,2.1755,2.1755,0,2.1042,2.1078,2.1137,2.1207,2.1258,2.1259,2.1316,2.1358,2.1422,2.1473,2.1528,2.1608,2.1675,2.1721,2.1789,2.1827,2.1831,2.1843,2.1841,2.1849,2.177,2.1751,2.1839,2.1839,2.1839,2.1839,2.1839,2.1839,2.1098,2.1175,2.1197,2.1296,2.1332,2.1403,2.1435,2.148,2.1521,2.1609,2.1664,2.1694,2.1744,2.1816,2.1877,2.1889,2.1913,2.1925,2.1938,2.1863,2.1854,2.1845,2.1828,2.1931,2.1931,2.2012,2.2013,2.2013]},{"header":{"parameterUnit":"m.s-1","parameterCategory":1,"la1":30.2991,"la2":30.254,"lo1":-89.0895,"lo2":-89.0444,"dy":0.0017,"dx":0.0017,"nx":28,"ny":28,"refTime":"2024-09-29T09:00:00:Z","depth":0,"parameterNumber":3,"parameterNumberName":"V-component_of_WINDS"},"data":[0,0,0,0,0,0,0,0,0,0,0,0,0,0,0,0,0,0,0,0,0,0,0,0,0,0,0,0,0,0,0,0,0,0,0,0,0,0,0,0,0,0,0,0,0,0,0,0,0,0,0,0,0,0,0,0,0,0,2.1405,2.1407,0,2.1573,2.1575,2.1577,2.1617,2.1616,2.1615,2.1614,2.1784,2.179,2.1795,0,0,0,0,0,0,0,0,0,0,0,0,0,2.1119,2.1124,2.1405,2.1407,2.1409,2.1573,2.1575,2.1577,2.1617,2.1616,2.1614,2.1613,2.1782,2.1789,2.1796,0,0,0,0,0,0,0,0,0,0,0,0,0,2.1261,2.1126,2.1405,2.1449,2.1455,2.1572,2.1575,2.1578,2.1617,2.1616,2.1614,2.1612,2.178,2.1788,2.1797,2.1882,0,0,2.1822,2.1826,0,0,0,0,0,0,0,0,2.1252,2.1271,2.144,2.1446,2.1453,2.1572,2.1537,2.168,2.1618,2.1556,2.1614,2.1612,2.1715,2.1729,2.1764,2.189,2.1897,2.1823,2.1828,2.1832,2.1834,0,0,0,0,0,0,0,2.1243,2.1264,2.1472,2.1443,2.145,2.146,2.1479,2.1564,2.1643,2.1561,2.1564,2.1584,2.1718,2.1756,2.1768,2.19,2.1823,2.183,2.1835,2.1839,2.2106,2.2108,0,0,0,0,0,0,2.1225,2.1256,2.1466,2.1477,2.1346,2.1467,2.1487,2.1536,2.1642,2.1656,2.1585,2.1585,2.1742,2.1758,2.1774,2.1882,2.1832,2.1839,2.1844,2.2104,2.2106,2.2108,0,0,0,0,0,0,2.1219,2.1244,2.1459,2.1367,2.1395,2.1474,2.1528,2.154,2.1577,2.166,2.1674,2.1609,2.1741,2.1762,2.1855,2.1889,2.1843,2.1851,2.2101,2.2104,2.2107,2.2098,0,0,0,0,0,0,2.121,2.1241,2.1274,2.1368,2.14,2.1538,2.153,2.1544,2.1592,2.1593,2.1686,2.17,2.1742,2.1843,2.1864,2.1899,2.1857,2.2099,2.2103,2.2106,2.2095,2.21,2.2104,0,0,0,0,0,2.12,2.1264,2.1276,2.1301,2.1443,2.154,2.1558,2.1605,2.1594,2.1629,2.1682,2.1697,2.1881,2.1852,2.1876,2.1914,2.2097,2.2102,2.2106,2.2093,2.2099,2.2104,0,0,0,0,0,0,2.1172,2.1277,2.1291,2.1387,2.1454,2.1546,2.159,2.161,2.1681,2.1679,2.1734,2.1755,2.1844,2.1889,2.1854,2.2003,2.1989,2.1999,2.1971,2.1977,2.1981,2.1969,2.1864,0,0,0,0,0,2.1177,2.1247,2.1335,2.1411,2.1444,2.1512,2.1555,2.1586,2.1657,2.1686,2.1746,2.1814,2.1888,2.1935,2.2007,2.2102,2.2123,2.2141,2.2145,2.2148,2.2156,2.2211,2.2219,2.2124,2.2124,2.2124,0,0,2.1188,2.1254,2.1295,2.1407,2.1463,2.1534,2.1535,2.161,2.1663,2.1697,2.1789,2.1835,2.1915,2.201,2.2054,2.2049,2.2187,2.2154,2.2156,2.2162,2.2216,2.2225,2.2233,2.2127,2.2126,2.2126,0,0,2.1245,2.1302,2.1372,2.1428,2.1513,2.1557,2.1574,2.1663,2.1696,2.1789,2.1816,2.188,2.2005,2.2062,2.2107,2.2186,2.2203,2.2208,2.2231,2.2283,2.2291,2.2298,2.2327,2.2337,2.2215,2.2215,2.2215,0,2.1248,2.1356,2.1406,2.148,2.1529,2.1564,2.1636,2.1688,2.1791,2.1824,2.1817,2.1976,2.2032,2.2141,2.216,2.2195,2.2217,2.2198,2.2286,2.2293,2.2301,2.2329,2.234,2.2215,2.2215,2.2215,2.2215,0,2.1356,2.1431,2.1478,2.1578,2.1632,2.1704,2.1765,2.1814,2.1841,2.1886,2.1981,2.2049,2.2137,2.2165,2.2191,2.2278,2.2272,2.2275,2.2262,2.2309,2.2337,2.2348,2.2216,2.2215,2.2215,2.2215,0,0,2.1399,2.1527,2.1543,2.1589,2.1686,2.1744,2.1819,2.1905,2.1946,2.2016,2.208,2.2186,2.219,2.2241,2.2273,2.2319,2.2379,2.2317,2.232,2.2327,2.248,2.2478,2.249,2.2391,2.2393,2.2395,2.2474,0,2.1468,2.1603,2.165,2.1761,2.1832,2.1866,2.1931,2.1997,2.2042,2.2108,2.2157,2.2231,2.223,2.2261,2.2308,2.2362,2.2411,2.2357,2.2451,2.2454,2.2431,2.2504,2.2502,2.2573,2.2485,2.2487,2.2488,0,2.1566,2.1639,2.1757,2.1846,2.1877,2.1935,2.2018,2.2081,2.2157,2.2186,2.2243,2.2273,2.2353,2.2334,2.2445,2.2407,2.2449,2.2481,2.2485,2.2496,2.2474,2.2518,2.2597,2.2608,2.2506,2.2504,2.2503,0,2.1587,2.1714,2.1802,2.184,2.1946,2.1985,2.2031,2.2105,2.2155,2.2227,2.226,2.234,2.2385,2.2447,2.2497,2.2479,2.2604,2.259,2.2631,2.2629,2.2655,2.2653,2.2743,2.2681,2.2681,2.2681,2.268,0,2.1659,2.173,2.1813,2.1866,2.1947,2.2001,2.208,2.2128,2.2194,2.2258,2.2292,2.2352,2.2415,2.2483,2.2523,2.2609,2.2628,2.2654,2.2664,2.2652,2.2648,2.268,2.2677,2.2684,2.2683,2.2682,2.2682,0,2.1695,2.1753,2.1851,2.1944,2.1969,2.2024,2.2103,2.2157,2.2203,2.2284,2.2306,2.2379,2.246,2.2517,2.2621,2.2649,2.2742,2.2751,2.2716,2.2721,2.2759,2.2755,2.2873,2.2892,2.2816,2.2817,2.2817,0,2.1738,2.1794,2.1892,2.1938,2.1984,2.2057,2.2108,2.2163,2.2214,2.2306,2.2349,2.2433,2.2503,2.2632,2.2694,2.2774,2.2786,2.2821,2.2798,2.2784,2.2787,2.2784,2.279,2.2825,2.2825,2.2826,2.2826,0,2.1807,2.1834,2.1905,2.1988,2.2048,2.2115,2.2183,2.2218,2.2286,2.2342,2.2426,2.2481,2.2588,2.2671,2.2758,2.2805,2.2827,2.2833,2.2847,2.2835,2.2813,2.2826,2.2727,2.283,2.283,2.283,2.2829,2.2829,2.1849,2.19,2.1978,2.2058,2.2115,2.2178,2.2233,2.2287,2.2358,2.2451,2.2479,2.2567,2.2642,2.2761,2.281,2.2879,2.2877,2.2896,2.2902,2.2906,2.2906,2.2802,2.2895,2.2895,2.2895,2.2895,2.2895,0,2.1921,2.1973,2.2045,2.214,2.2202,2.2218,2.2295,2.2346,2.2423,2.2492,2.2561,2.2658,2.2739,2.2808,2.2892,2.2935,2.2947,2.2955,2.2953,2.2963,2.2903,2.2883,2.2944,2.2944,2.2944,2.2944,2.2944,2.2944,2.1965,2.2054,2.209,2.2207,2.2259,2.2346,2.2388,2.2447,2.2502,2.261,2.2678,2.2722,2.2792,2.2881,2.2957,2.2975,2.3005,2.301,2.3031,2.2973,2.2967,2.2962,2.2944,2.3016,2.3016,2.3086,2.3086,2.3087]}]]